TimeCDT,TemperatureF,Dew PointF,Humidity,Sea Level PressureIn,VisibilityMPH,Wind Direction,Wind SpeedMPH,Gust SpeedMPH,PrecipitationIn,Events,Conditions,WindDirDegrees,DateUTC
12:56 AM,70.0,64.9,84,30.07,10.0,Calm,Calm,-,N/A,,Clear,0,2013-06-16 05:56:00
1:56 AM,68.9,64.9,87,30.07,10.0,Calm,Calm,-,N/A,,Clear,0,2013-06-16 06:56:00
2:56 AM,68.9,64.9,87,30.07,10.0,Calm,Calm,-,N/A,,Clear,0,2013-06-16 07:56:00
3:56 AM,68.9,65.8,90,30.07,10.0,Calm,Calm,-,N/A,,Overcast,0,2013-06-16 08:56:00
4:56 AM,68.9,65.8,90,30.08,10.0,Calm,Calm,-,N/A,,Overcast,0,2013-06-16 09:56:00
5:56 AM,68.9,64.9,87,30.09,10.0,Calm,Calm,-,N/A,,Clear,0,2013-06-16 10:56:00
6:56 AM,70.9,66.9,87,30.10,10.0,Calm,Calm,-,N/A,,Scattered Clouds,0,2013-06-16 11:56:00
7:56 AM,73.9,65.8,76,30.12,10.0,Calm,Calm,-,0.00,,Clear,0,2013-06-16 12:56:00
8:56 AM,77.9,65.8,66,30.12,10.0,South,6.9,-,0.00,,Partly Cloudy,190,2013-06-16 13:56:00
9:56 AM,81.9,66.9,60,30.10,10.0,SSW,5.8,-,N/A,,Clear,200,2013-06-16 14:56:00
10:56 AM,84.9,68.0,57,30.09,10.0,SW,9.2,-,N/A,,Partly Cloudy,220,2013-06-16 15:56:00
11:56 AM,86.9,68.0,53,30.07,10.0,WSW,9.2,-,N/A,,Clear,240,2013-06-16 16:56:00
12:56 PM,86.9,68.9,55,30.05,10.0,SW,9.2,-,N/A,,Clear,230,2013-06-16 17:56:00
1:56 PM,88.0,68.0,51,30.04,10.0,SW,6.9,-,N/A,,Clear,230,2013-06-16 18:56:00
2:56 PM,86.0,68.9,56,30.04,10.0,WSW,9.2,-,N/A,,Scattered Clouds,250,2013-06-16 19:56:00
3:56 PM,86.9,68.9,55,30.02,10.0,WNW,10.4,-,N/A,,Clear,300,2013-06-16 20:56:00
4:56 PM,88.0,70.0,55,30.01,10.0,West,10.4,-,N/A,,Clear,280,2013-06-16 21:56:00
5:56 PM,84.9,70.0,61,30.01,10.0,WNW,5.8,-,N/A,,Clear,290,2013-06-16 22:56:00
6:56 PM,82.9,70.0,65,30.02,10.0,Calm,Calm,-,N/A,,Clear,0,2013-06-16 23:56:00
7:17 PM,82.4,71.6,70,30.01,10.0,West,3.5,-,N/A,Thunderstorm,Scattered Clouds,260,2013-06-17 00:17:00
7:56 PM,81.9,70.0,67,30.02,10.0,Calm,Calm,-,N/A,Thunderstorm,Partly Cloudy,0,2013-06-17 00:56:00
8:29 PM,80.6,71.6,74,30.00,10.0,Calm,Calm,-,N/A,,Partly Cloudy,0,2013-06-17 01:29:00
8:56 PM,81.0,70.9,71,30.01,10.0,Calm,Calm,-,N/A,,Clear,0,2013-06-17 01:56:00
9:56 PM,79.9,70.9,74,30.02,10.0,SSW,3.5,-,N/A,,Mostly Cloudy,200,2013-06-17 02:56:00
10:56 PM,77.0,66.9,71,30.02,10.0,SSW,8.1,-,N/A,,Scattered Clouds,210,2013-06-17 03:56:00
11:56 PM,74.8,68.0,79,30.03,10.0,South,5.8,-,N/A,,Clear,170,2013-06-17 04:56:00